Regional Weather Roundup
Issued by NWS Kansas City/Pleasant Hill, MO

Home | Current Version | Previous Version | Graphics & Text | Print | Product List | Glossary Off
Versions: 1 2 3 4 5 6 7 8 9 10 11 12 13 14 15 16 17 18 19 20 21 22 23 24 25 26 27 28 29 30 31 32 33 34 35 36 37 38 39 40 41 42 43 44 45 46 47 48 49 50

000
ASUS43 KEAX 251710
RWREAX

WEATHER ROUNDUP FOR EASTERN KANSAS AND NORTHWEST MISSOURI
NATIONAL WEATHER SERVICE KANSAS CITY/PLEASANT HILL MO
1200 PM CDT THU MAY 25 2017

KSZ040-057-103>105-MOZ028-029-037-043-251800-
...KANSAS CITY METROPOLITAN AREA...

CITY           SKY/WX    TMP DP  RH WIND       PRES   REMARKS
K.C. INTL      MOSUNNY   70  51  51 S12       29.69F
K.C. DOWNTOWN  SUNNY     71  49  45 S12G18    29.69F
LEES SUMMIT    SUNNY     69  50  50 SE9       29.71F
OLATHE - IXD   SUNNY     70  50  49 S14       29.69F
OLATHE - OJC   SUNNY     68  51  54 S15G22    29.70F
LAWRENCE       SUNNY     72  50  45 S13       29.67F

$$

MOZ001>008-011>017-020>025-030>033-038>040-044>046-053-054-251800-
...NORTHERN AND CENTRAL MISSOURI...

CITY           SKY/WX    TMP DP  RH WIND       PRES   REMARKS
ST. JOSEPH     SUNNY     71  52  50 S16       29.68F
MOSBY          SUNNY     68  46  45 SE8       29.70
WARRENSBURG    MOSUNNY   68  52  56 SE8       29.73F
WHITEMAN AFB   MOSUNNY   68  51  53 S12       29.73S
CLINTON        SUNNY     68  50  52 S6        29.75S
SEDALIA        MOSUNNY   70  54  56 VRB7      29.75F
WARSAW         NOT AVBL
CHILLICOTHE      N/A     67  51  56 S7        29.73S
KIRKSVILLE     SUNNY     66  48  52 VRB5      29.74R

$$

MOZ041-047>049-056>058-063>065-088>090-097-251800-
...EASTERN AND SOUTHERN MISSOURI...

CITY           SKY/WX    TMP DP  RH WIND       PRES   REMARKS
ST. LOUIS INTL MOSUNNY   71  50  47 NW12G18   29.73R
SPIRIT OF STL  MOSUNNY   69  52  54 W5        29.72S
COLUMBIA       MOSUNNY   68  51  54 W8        29.75S
JEFFERSON CITY MOSUNNY   69  50  50 SW5       29.74F
ROLLA          MOSUNNY   66  52  60 SW9       29.75S
OSAGE BEACH    MOSUNNY   67  50  54 SW7       29.77S
SPRINGFIELD    SUNNY     68  50  52 S10       29.75F
BRANSON        MOSUNNY   68  48  49 S7        29.79F
JOPLIN         SUNNY     72  53  51 S12       29.73F
WEST PLAINS    SUNNY     68  50  52 W9        29.80S

$$

IAZ060-094-KSZ022-034>040-054-083-096-NEZ052-066-093-251800-
...KANSAS...SOUTHEAST NEBRASKA AND IOWA...

CITY           SKY/WX    TMP DP  RH WIND       PRES   REMARKS
TOPEKA         SUNNY     71  52  50 SE18      29.65F
MANHATTAN      SUNNY     73  48  41 S21       29.60F
EMPORIA        SUNNY     70  49  47 SE20G28   29.65F
CHANUTE        SUNNY     72  50  45 SE15G23   29.68F
WICHITA        MOSUNNY   71  51  49 S21G29    29.58F
OMAHA          MOSUNNY   70  47  43 S21       29.63F
LINCOLN        SUNNY     72  48  42 S16       29.62R
FALLS CITY     SUNNY     70  49  47 SE23      29.63F
LAMONI         SUNNY     66  50  56 S8        29.71S
DES MOINES     MOSUNNY   66  49  54 S5        29.70F

$$




USA.gov is the U.S. government's official web portal to all federal, state and local government web resources and services.